Location: ?
(35.4214°N, 139.3011°E)
Time: 20:42:53
(UTC+00:00)

Meteor 2-17 Rocket - Pass Details

Date: 29 October 2020
Orbit: 935 x 956 km, 82.5° (Epoch: 04 December)

Event Time Altitude Azimuth Distance (km) Brightness Sun altitude
Rises 10:00:01 0° 359° (N) 3,598 7.5 -26.8°
Reaches altitude 10° 10:02:37 10° 6° (N) 2,650 6.7 -27.3°
Enters shadow 10:04:16 19° 12° (NNE) 2,083 6.1 -27.7°
